This is the latest recevied weather packets stored in our database for station/object W6MAF. If no packets are shown the sender has not sent any weather packets the latest 10 day(s).
| Time | Temp. | Humidity | Pressure | Rain* | Wind** | Luminosity | Snow |
|---|---|---|---|---|---|---|---|
| 1777917747 | 10° C | 51% | - | 0 mm | 4.02 m/s, 200° | - | - |
| 1777917450 | 10° C | 51% | - | 0 mm | 7.6 m/s, 188° | - | - |
| 1777916854 | 10.56° C | 48% | - | 0 mm | 6.71 m/s, 183° | - | - |
| 1777916557 | 10.56° C | 48% | - | 0 mm | 6.26 m/s, 194° | - | - |
| 1777916301 | 10.56° C | 50% | - | 0 mm | 0.89 m/s, 208° | - | - |
| 1777916256 | 10.56° C | 50% | - | 0 mm | 0.89 m/s, 208° | - | - |
| 1777915958 | 10° C | 49% | - | 0 mm | 4.02 m/s, 163° | - | - |
| 1777915661 | 10° C | 49% | - | 0 mm | 3.13 m/s, 184° | - | - |
| 1777915363 | 10° C | 49% | - | 0 mm | 1.79 m/s, 198° | - | - |
| 1777915065 | 10° C | 50% | - | 0 mm | 1.79 m/s, 232° | - | - |
| 1777914833 | 10° C | 51% | - | 0 mm | 0.45 m/s, 190° | - | - |
| 1777914768 | 10° C | 51% | - | 0 mm | 0.45 m/s, 190° | - | - |
| 1777914467 | 10° C | 52% | - | 0 mm | 0.45 m/s, 150° | - | - |
| 1777914228 | 10° C | 53% | - | 0 mm | 2.24 m/s, 172° | - | - |
| 1777914170 | 10° C | 53% | - | 0 mm | 2.24 m/s, 172° | - | - |
| 1777913871 | 10° C | 53% | - | 0 mm | 2.68 m/s, 105° | - | - |
| 1777913673 | 10° C | 53% | - | 0 mm | 0 m/s | - | - |
| 1777913574 | 10° C | 53% | - | 0 mm | 0 m/s | - | - |
| 1777913276 | 10° C | 54% | - | 0 mm | 1.34 m/s, 217° | - | - |
| 1777912978 | 9.44° C | 54% | - | 0 mm | 1.34 m/s, 132° | - | - |
| 1777912380 | 9.44° C | 54% | - | 0 mm | 1.34 m/s, 177° | - | - |
| 1777911487 | 8.89° C | 59% | - | 0 mm | 0.89 m/s, 122° | - | - |
| 1777911189 | 8.89° C | 61% | - | 0 mm | 0.45 m/s, 205° | - | - |
| 1777910888 | 8.89° C | 63% | - | 0 mm | 0.45 m/s, 197° | - | - |
| 1777910591 | 8.33° C | 65% | - | 0 mm | 0.89 m/s, 111° | - | - |
* Rain latest hour (hover to see other rain measurements)
** Current wind speed in m/s (hover to see current wind gust speed)